FW4559 Weather Reports


time (UTC)temp
F
wind
direction
speed
knots
gust
knots
rain 1hr
in
rain 24hr
in
rain mn
in
humidity
%
barometer
mb
20260505034523 58 198 4.3 13.0 0.00 0.00 0.00 51 1014.3
20260505034023 59 184 5.2 17.4 0.00 0.00 0.00 51 1014.3
20260505033526 58 134 7.0 17.4 0.00 0.00 0.00 51 1014.3
20260505033033 58 171 3.5 11.3 0.00 0.00 0.00 50 1014.3
20260505032522 59 150 4.3 12.2 0.00 0.00 0.00 50 1014.4
20260505032023 58 202 7.0 12.2 0.00 0.00 0.00 50 1014.5
20260505031523 58 237 3.5 8.7 0.00 0.00 0.00 50 1014.5
20260505031022 59 193 0.9 8.7 0.00 0.00 0.00 49 1014.6
20260505030521 59 167 1.7 7.8 0.00 0.00 0.00 49 1014.7
20260505030021 59 207 3.5 14.8 0.00 0.00 0.00 48 1014.8
20260505025525 59 189 6.1 14.8 0.00 0.00 0.00 48 1014.8
20260505025021 59 209 0.9 9.6 0.00 0.00 0.00 48 1015.0
20260505024546 59 203 3.5 9.6 0.00 0.00 0.00 48 1014.9
20260505024020 59 159 2.6 9.6 0.00 0.00 0.00 48 1014.9
20260505023520 59 264 1.7 5.2 0.00 0.00 0.00 48 1014.9
20260505023020 59 110 1.7 8.7 0.00 0.00 0.00 47 1014.9
20260505022520 59 193 4.3 8.7 0.00 0.00 0.00 47 1014.8
20260505022020 59 234 1.7 7.8 0.00 0.00 0.00 47 1014.8
20260505021538 59 213 1.7 10.4 0.00 0.00 0.00 47 1014.9
20260505021019 59 198 1.7 9.6 0.00 0.00 0.00 46 1014.9
20260505020622 60 165 1.7 10.4 0.00 0.00 0.00 46 1014.9
20260505020019 60 165 3.5 10.4 0.00 0.00 0.00 46 1014.8
20260505015521 59 193 1.7 8.7 0.00 0.00 0.00 46 1014.8
20260505015019 59 143 2.6 8.7 0.00 0.00 0.00 45 1014.9
20260505014523 60 207 1.7 7.0 0.00 0.00 0.00 45 1014.9
20260505014019 60 86 1.7 7.0 0.00 0.00 0.00 45 1014.7
20260505013518 60 208 0.9 5.2 0.00 0.00 0.00 45 1014.7
20260505013018 60 163 0.9 5.2 0.00 0.00 0.00 45 1014.7
20260505012519 60 171 1.7 7.8 0.00 0.00 0.00 45 1014.6
20260505012017 60 182 1.7 8.7 0.00 0.00 0.00 45 1014.6
20260505011518 60 218 2.6 7.8 0.00 0.00 0.00 45 1014.6
20260505011017 60 176 1.7 7.0 0.00 0.00 0.00 45 1014.6
20260505010516 60 127 2.6 13.0 0.00 0.00 0.00 45 1014.6
20260505010016 60 214 5.2 13.0 0.00 0.00 0.00 45 1014.5
20260505005516 60 203 1.7 5.2 0.00 0.00 0.00 46 1014.5
20260505005016 61 238 1.7 6.1 0.00 0.00 0.00 47 1014.5
20260505004524 61 145 2.6 7.0 0.00 0.00 0.00 47 1014.4
20260505004015 61 133 0.9 7.0 0.00 0.00 0.00 48 1014.4
20260505003616 61 188 3.5 7.8 0.00 0.00 0.00 47 1014.3
20260505003015 62 195 1.7 6.1 0.00 0.00 0.00 47 1014.2
20260505002515 62 95 2.6 7.0 0.00 0.00 0.00 47 1014.1
20260505002015 62 170 1.7 7.0 0.00 0.00 0.00 47 1014.1
20260505001515 62 153 2.6 7.8 0.00 0.00 0.00 46 1014.1
20260505001017 63 169 1.7 5.2 0.00 0.00 0.00 46 1014.1
20260505000513 63 113 1.7 9.6 0.00 0.00 0.00 45 1014.2
20260505000014 63 120 2.6 9.6 0.00 0.00 0.00 45 1014.1
20260504235513 64 217 4.3 9.6 0.00 0.00 0.00 44 1014.0
20260504235017 64 205 4.3 8.7 0.00 0.00 0.00 44 1014.0
20260504234517 64 180 4.3 9.6 0.00 0.00 0.00 44 1013.9
20260504234016 64 131 4.3 9.6 0.00 0.00 0.00 44 1013.9
20260504233513 65 126 2.6 8.7 0.00 0.00 0.00 44 1013.8
20260504233013 65 136 3.5 8.7 0.00 0.00 0.00 43 1013.9
20260504232513 65 168 3.5 8.7 0.00 0.00 0.00 44 1013.8
20260504232012 65 68 2.6 8.7 0.00 0.00 0.00 43 1013.8
20260504231512 66 207 1.7 7.0 0.00 0.00 0.00 43 1013.7
20260504231015 66 154 2.6 11.3 0.00 0.00 0.00 42 1013.8
20260504230512 66 165 4.3 11.3 0.00 0.00 0.00 41 1013.6
20260504230012 66 198 2.6 7.8 0.00 0.00 0.00 41 1013.6
20260504225512 66 139 3.5 9.6 0.00 0.00 0.00 42 1013.5
20260504225012 66 180 4.3 9.6 0.00 0.00 0.00 41 1013.5
20260504224511 67 192 3.5 8.7 0.00 0.00 0.00 42 1013.6
20260504224010 67 139 3.5 9.6 0.00 0.00 0.00 42 1013.6
20260504223510 67 193 2.6 9.6 0.00 0.00 0.00 42 1013.7
20260504223011 67 169 3.5 7.8 0.00 0.00 0.00 41 1013.6
20260504222509 68 154 4.3 7.8 0.00 0.00 0.00 41 1013.5
20260504222014 68 214 3.5 11.3 0.00 0.00 0.00 40 1013.5
20260504221510 68 152 6.1 11.3 0.00 0.00 0.00 38 1013.6
20260504221009 69 204 4.3 7.8 0.00 0.00 0.00 38 1013.5
20260504220512 69 198 1.7 7.8 0.00 0.00 0.00 40 1013.5
20260504220009 69 174 2.6 7.8 0.00 0.00 0.00 39 1013.6
20260504215508 69 168 3.5 9.6 0.00 0.00 0.00 39 1013.5
20260504215007 69 205 6.1 12.2 0.00 0.00 0.00 38 1013.6
20260504214508 69 207 1.7 12.2 0.00 0.00 0.00 41 1013.6
20260504214009 68 188 0.9 11.3 0.00 0.00 0.00 40 1013.7
20260504213509 68 171 7.0 11.3 0.00 0.00 0.00 39 1013.8
20260504213007 68 142 2.6 9.6 0.00 0.00 0.00 41 1013.7
20260504212506 68 143 5.2 9.6 0.00 0.00 0.00 40 1013.9
20260504212005 68 156 1.7 8.7 0.00 0.00 0.00 41 1013.9
20260504211505 68 127 4.3 13.9 0.00 0.00 0.00 40 1014.0
20260504211005 68 93 5.2 13.9 0.00 0.00 0.00 40 1013.9
20260504210505 69 119 4.3 10.4 0.00 0.00 0.00 39 1013.9
20260504210006 70 145 4.3 12.2 0.00 0.00 0.00 39 1013.7
20260504205504 70 195 5.2 12.2 0.00 0.00 0.00 40 1013.9
20260504205004 69 142 2.6 9.6 0.00 0.00 0.00 39 1014.0
20260504204509 70 188 3.5 10.4 0.00 0.00 0.00 39 1013.9
20260504204002 70 180 2.6 10.4 0.00 0.00 0.00 39 1014.1
20260504203501 70 169 4.3 9.6 0.00 0.00 0.00 39 1014.2
20260504203100 70 213 2.6 11.3 0.00 0.00 0.00 41 1014.1
20260504202559 68 124 2.6 11.3 0.00 0.00 0.00 41 1014.2
20260504202100 68 160 4.3 10.4 0.00 0.00 0.00 40 1014.2
20260504201609 69 146 3.5 9.6 0.00 0.00 0.00 40 1014.2
20260504201058 69 226 1.7 7.0 0.00 0.00 0.00 40 1014.3
20260504200600 69 119 2.6 8.7 0.00 0.00 0.00 41 1014.3
20260504200109 69 145 2.6 8.7 0.00 0.00 0.00 41 1014.4
20260504195556 68 146 1.7 6.1 0.00 0.00 0.00 43 1014.4
20260504195055 67 131 0.9 7.8 0.00 0.00 0.00 43 1014.4
20260504194555 67 151 2.6 6.1 0.00 0.00 0.00 43 1014.5
20260504194059 67 126 2.6 8.7 0.00 0.00 0.00 42 1014.6
20260504193554 67 164 5.2 8.7 0.00 0.00 0.00 41 1014.7
20260504193054 67 85 3.5 7.8 0.00 0.00 0.00 41 1014.7
20260504192554 68 174 2.6 6.1 0.00 0.00 0.00 40 1014.9
20260504192052 68 141 0.9 6.1 0.00 0.00 0.00 40 1014.9
20260504191552 69 239 0.9 7.8 0.00 0.00 0.00 41 1015.0
20260504191052 69 190 2.6 6.1 0.00 0.00 0.00 39 1015.1
20260504190550 69 167 1.7 10.4 0.00 0.00 0.00 40 1015.2
20260504190048 69 344 3.5 10.4 0.00 0.00 0.00 41 1015.2
20260504185552 68 3 4.3 13.0 0.00 0.00 0.00 42 1015.2
20260504185051 68 323 5.2 13.0 0.00 0.00 0.00 42 1015.3
20260504184556 67 249 2.6 13.0 0.00 0.00 0.00 41 1015.3
20260504184047 68 16 3.5 9.6 0.00 0.00 0.00 42 1015.4
20260504183547 68 214 1.7 11.3 0.00 0.00 0.00 42 1015.4
20260504183046 67 268 2.6 18.2 0.00 0.00 0.00 44 1015.5
20260504182546 66 152 5.2 18.2 0.00 0.00 0.00 43 1015.6
20260504182044 67 236 2.6 11.3 0.00 0.00 0.00 44 1015.8
20260504181546 67 247 4.3 10.4 0.00 0.00 0.00 42 1015.9
20260504181043 66 286 2.6 13.0 0.00 0.00 0.00 44 1016.0
20260504180544 66 121 3.5 13.0 0.00 0.00 0.00 43 1016.1
20260504180041 67 138 4.3 11.3 0.00 0.00 0.00 43 1016.1
20260504175541 66 350 3.5 12.2 0.00 0.00 0.00 43 1016.1
20260504175043 66 189 5.2 12.2 0.00 0.00 0.00 42 1016.2
20260504174541 67 278 3.5 13.9 0.00 0.00 0.00 42 1016.1
20260504174041 67 134 4.3 13.9 0.00 0.00 0.00 41 1016.2
20260504173539 66 243 1.7 7.8 0.00 0.00 0.00 41 1016.2
20260504173039 65 164 2.6 9.6 0.00 0.00 0.00 43 1016.3
20260504172539 65 211 3.5 9.6 0.00 0.00 0.00 41 1016.3
20260504172037 65 138 3.5 11.3 0.00 0.00 0.00 42 1016.2
20260504171537 65 234 3.5 11.3 0.00 0.00 0.00 41 1016.4
20260504171037 65 72 3.5 11.3 0.00 0.00 0.00 40 1016.5
20260504170534 65 203 4.3 12.2 0.00 0.00 0.00 40 1016.5
20260504151020 55 255 4.3 9.6 0.00 0.00 0.00 55 1018.7
20260504150519 55 324 2.6 12.2 0.00 0.00 0.00 56 1019.0
20260504141012 57 8 5.2 16.5 0.00 0.00 0.00 50 1018.5
20260504140511 57 316 7.0 16.5 0.00 0.00 0.00 50 1018.5
20260504130507 57 247 0.0 1.7 0.00 0.00 0.00 49 1017.9
20260504110549 44 3 0.9 3.5 0.00 0.00 0.00 70 1017.9
20260504100546 47 320 0.0 1.7 0.00 0.00 0.00 64 1017.6
20260504081544 37 236 0.0 2.6 0.00 0.00 0.00 80 1017.6
20260504081031 37 88 0.0 2.6 0.00 0.00 0.00 79 1017.6
20260504080530 37 106 0.0 1.7 0.00 0.00 0.00 78 1017.6
20260504050506 42 120 0.0 0.9 0.00 0.00 0.00 64 1018.4
20260504050013 42 119 0.0 0.9 0.00 0.00 0.00 65 1018.4
20260504045505 42 119 0.0 0.9 0.00 0.00 0.00 65 1018.4
20260504045005 42 119 0.0 0.9 0.00 0.00 0.00 65 1018.5
20260504044504 42 143 0.0 0.9 0.00 0.00 0.00 65 1018.4
20260504044003 41 120 0.0 0.9 0.00 0.00 0.00 65 1018.4
20260504043503 41 120 0.0 0.9 0.00 0.00 0.00 66 1018.3
20260504043003 41 120 0.0 0.9 0.00 0.00 0.00 65 1018.4
20260504042503 41 181 0.0 0.0 0.00 0.00 0.00 65 1018.4
20260504042005 41 181 0.0 0.0 0.00 0.00 0.00 65 1018.4
20260504041501 41 181 0.0 0.9 0.00 0.00 0.00 65 1018.3
20260504041100 41 181 0.0 0.9 0.00 0.00 0.00 65 1018.4
20260504040558 41 183 0.0 0.9 0.00 0.00 0.00 66 1018.3
20260504040057 41 183 0.0 0.9 0.00 0.00 0.00 64 1018.2
20260504035557 41 160 0.0 0.9 0.00 0.00 0.00 64 1018.4
20260504035057 43 112 0.9 0.9 0.00 0.00 0.00 61 1018.3